Regional Weather Roundup
Issued by NWS

Home | Current Version | Previous Version | Text Only | Print | Product List | Glossary Off
Versions: 1 2 3 4 5 6 7 8 9 10 11 12 13 14 15 16 17 18 19 20 21 22 23 24 25 26 27 28 29 30 31 32 33 34 35 36 37 38 39 40 41 42 43 44 45 46 47 48 49 50

000
ASUS43 KDTX 080710
RWRMI
MICHIGAN HOURLY REGIONAL WEATHER ROUNDUP
NATIONAL WEATHER SERVICE DETROIT/PONTIAC MI
200 AM EST MON FEB 08 2016

NOTE: "FAIR" INDICATES FEW OR NO CLOUDS BELOW 12,000 FEET WITH NO
SIGNIFICANT WEATHER AND/OR OBSTRUCTION TO VISIBILITY.

MIZ047>049-052>055-059>063-066>070-074>076-081>083-080800-
SOUTHEAST LOWER MICHIGAN

CITY           SKY/WX    TMP DP  RH WIND       PRES   REMARKS
ADRIAN         CLOUDY    35  31  85 W5        29.68F WCI  31
ALMA           PTCLDY    34  32  93 SW9       29.64S WCI  26
ANN ARBOR      CLOUDY    36  31  82 SW3       29.66F
BAD AXE        CLOUDY    37  32  82 CALM      29.65F
CARO           CLOUDY    37  32  81 SW3       29.64F
DETROIT CITY   CLOUDY    42  31  64 SW7       29.67F
DETROIT        CLOUDY    41  32  70 SW8       29.67F
FLINT          CLOUDY    42  31  64 SW7       29.65F
GROSSE ILE     CLOUDY    39  34  81 S3        29.66F
HILLSDALE      MOCLDY    34  31  87 SW5       29.66S WCI  30
HOWELL         CLOUDY    37  32  83 SW5       29.64F WCI  33

CITY           SKY/WX    TMP DP  RH WIND       PRES   REMARKS
JACKSON        PTCLDY    34  29  82 SW6       29.65F WCI  29
LAMBERTVILLE   CLOUDY    39  32  76 W7        29.68F WCI  34
LANSING        PTCLDY    34  28  79 SW6       29.65F WCI  29
LAPEER         CLOUDY    40  32  74 W3        29.65F
MASON          PTCLDY    34  31  86 CALM      29.65F
MONROE         CLOUDY    39  32  76 W7        29.67F WCI  34
MT. CLEMENS    CLOUDY    37  33  85 S6        29.65F WCI  32
PONTIAC        CLOUDY    40  31  70 W6        29.64F
PORT HOPE        N/A     38  32  79 SW3       29.63F
PORT HURON     CLOUDY    39  32  75 S5        29.66F
TRI CITIES     CLOUDY    39  31  72 S6        29.64F WCI  35
MIDLAND        CLOUDY    36  30  79 CALM      29.63S
TROY           CLOUDY    43  32  65 SW7       29.67F
SAGINAW HB     CLOUDY    37  34  87 SW6       29.64F WCI  33
$$
MIZ043>046-050>051-056>058-064>065-071>073-077>080-080800-
SOUTHWEST LOWER MICHIGAN

CITY           SKY/WX    TMP DP  RH WIND       PRES   REMARKS
BATTLE CREEK   PTCLDY    30  26  85 SW5       29.66F WCI  25
BENTON HARBOR  CLEAR     32  27  81 SW6       29.67F WCI  26
BIG RAPIDS     CLOUDY    35  32  88 SW5       29.60S WCI  31
COLDWATER      CLEAR     33  31  92 SW6       29.67S WCI  27
FREMONT        FAIR      32  29  90 SW3       29.61F
HOLLAND        CLEAR     33  28  81 SW9       29.66S WCI  25
GRAND RAPIDS   CLEAR     32  29  88 S7        29.64F WCI  26
IONIA          FAIR      31  28  90 SW6       29.63F WCI  25
KALAMAZOO      CLEAR     31  26  82 SW5       29.66F WCI  26
LUDINGTON      CLOUDY    35  31  84 SW6       29.60F WCI  30
MARSHALL       PTCLDY    31  27  86 SW5       29.65F WCI  26
MOUNT PLEASANT PTCLDY    36  31  82 S5        29.61F WCI  32
MUSKEGON       CLEAR     36  28  73 SW9       29.63F WCI  29
SOUTH HAVEN    CLEAR     35  31  83 SW5       29.66F WCI  31
$$
MIZ016>042-080800-
NORTHERN LOWER MICHIGAN

CITY           SKY/WX    TMP DP  RH WIND       PRES   REMARKS
ALPENA         CLOUDY    33  28  81 SE3       29.61F
BEAVER ISLAND  DRIZZLE   36  33  91 CALM      29.57F
BELLAIRE       CLOUDY    34  31  90 CALM      29.59F
CADILLAC       CLOUDY    31  30  96 CALM      29.57S
CHARLEVOIX     CLOUDY    37  32  84 S3        29.60F
FRANKFORT      MOCLDY    37  32  85 CALM      29.57F
GAYLORD        PTCLDY    33  29  85 S5        29.57F WCI  29
GRAYLING       CLEAR     28  27  95 CALM      29.59S FOG
HARBOR SPRINGS CLOUDY    36  31  83 CALM      29.58F
HOUGHTON LAKE  CLEAR     29  28  96 CALM      29.59F
MANISTEE       CLOUDY    34  28  80 S5        29.59F WCI  30
OSCODA         CLOUDY    34  31  88 S5        29.62F WCI  30
PELLSTON       CLOUDY    35  31  85 E3        29.59S
ROGERS CITY    CLOUDY    36  29  77 CALM      29.61F
TRAVERSE CITY  PTCLDY    36  30  79 S5        29.57F WCI  32
$$
MIZ007>008-015-080800-
EASTERN UPPER MICHIGAN

CITY           SKY/WX    TMP DP  RH WIND       PRES   REMARKS
KINROSS        CLOUDY    34  34 100 SE7       29.58S WCI  28
MACKINAC ISLAN CLOUDY    34  31  88 S5        29.58S WCI  30
NEWBERRY       CLOUDY    34  33  96 S7        29.55F WCI  28
S. S. MARIE    CLOUDY    34  32  92 CALM      29.58S FOG
MUNISING         N/A     35  32  88 S6        29.53F WCI  30
$$
MIZ004>006-011>014-085-080800-
CENTRAL UPPER MICHIGAN

CITY           SKY/WX    TMP DP  RH WIND       PRES   REMARKS
MANISTIQUE     CLOUDY    34  32  94 CALM      29.54F
ESCANABA       CLOUDY    34  30  86 CALM      29.55S
MENOMINEE      CLOUDY    34  28  80 SW5       29.55S WCI  30
SAWYER-GWINN   MIX PCPN  30  30 100 SW6       29.51S WCI  24
$$
MIZ001>003-009>011-084-080800-
WESTERN UPPER MICHIGAN

CITY           SKY/WX    TMP DP  RH WIND       PRES   REMARKS
IRON MOUNTAIN  LGT SNOW  31  28  89 CALM      29.51S FOG
HOUGHTON       LGT SNOW  27  23  85 N16       29.52S FOG     WCI  15
COPPER HARBOR    N/A     29  27  92 NE23G29   29.55R WCI  15
IRONWOOD       CLOUDY    28  28 100 CALM      29.51R
$$

ABBREVIATIONS USED IN REMARKS
   TC - TEMPERATURE IN CELSIUS
  WCI - WIND CHILL INDEX
   HX - HEAT INDEX
  VSB - VISIBILITY




USA.gov is the U.S. government's official web portal to all federal, state and local government web resources and services.